EW7507 Weather Reports


time (UTC)temp
C
wind
direction
speed
KPH
gust
KPH
rain 1hr
cm
rain 24hr
cm
rain mn
cm
humidity
%
barometer
mb
20260502214430 21 18 3.2 8.0 0.00 0.00 0.00 35 975.6
20260502214421 21 96 4.8 9.7 0.00 0.00 0.00 33 975.5
20260502213425 20 94 6.4 9.7 0.00 0.00 0.00 34 975.7
20260502213418 20 41 3.2 8.0 0.00 0.00 0.00 38 975.7
20260502212418 20 94 3.2 11.3 0.00 0.00 0.00 34 975.8
20260502211916 20 85 1.6 11.3 0.00 0.00 0.00 34 975.9
20260502211420 21 58 0.0 8.0 0.00 0.00 0.00 33 976.0
20260502210922 20 1 4.8 16.1 0.00 0.00 0.00 39 976.1
20260502210914 20 61 1.6 14.5 0.00 0.00 0.00 33 976.1
20260502205914 20 96 3.2 17.7 0.00 0.00 0.00 36 976.1
20260502205414 20 182 3.2 17.7 0.00 0.00 0.00 34 976.3
20260502204914 20 85 9.7 16.1 0.00 0.00 0.00 37 976.3
20260502204415 20 0 1.6 16.1 0.00 0.00 0.00 37 976.4
20260502203913 20 138 6.4 16.1 0.00 0.00 0.00 35 976.5
20260502203414 20 165 0.0 8.0 0.00 0.00 0.00 35 976.5
20260502202914 21 217 0.0 8.0 0.00 0.00 0.00 34 976.5
20260502202414 20 207 0.0 6.4 0.00 0.00 0.00 35 976.6
20260502201912 20 314 1.6 14.5 0.00 0.00 0.00 36 976.7
20260502201424 19 147 1.6 3.2 0.00 0.00 0.00 35 977.0
20260502201416 19 296 8.0 14.5 0.00 0.00 0.00 36 976.9
20260502200415 20 130 0.0 3.2 0.00 0.00 0.00 35 977.0
20260502195912 20 0 0.0 3.2 0.00 0.00 0.00 37 977.1
20260502195413 20 0 0.0 4.8 0.00 0.00 0.00 36 977.2
20260502194912 19 306 1.6 8.0 0.00 0.00 0.00 36 977.3
20260502194413 20 307 1.6 8.0 0.00 0.00 0.00 35 977.4
20260502193912 20 316 1.6 14.5 0.00 0.00 0.00 34 977.5
20260502192911 21 0 8.0 16.1 0.00 0.00 0.00 34 977.6
20260502192414 21 6 8.0 11.3 0.00 0.00 0.00 34 977.5
20260502191913 20 72 4.8 16.1 0.00 0.00 0.00 35 977.7
20260502191420 20 7 3.2 8.0 0.00 0.00 0.00 36 977.8
20260502191412 20 0 1.6 16.1 0.00 0.00 0.00 37 977.7
20260502190412 20 11 1.6 9.7 0.00 0.00 0.00 37 977.9
20260502185911 20 0 6.4 9.7 0.00 0.00 0.00 36 978.0
20260502185413 19 41 3.2 11.3 0.00 0.00 0.00 37 978.0
20260502184910 19 334 3.2 11.3 0.00 0.00 0.00 36 978.1
20260502184413 19 0 4.8 11.3 0.00 0.00 0.00 36 978.1
20260502183910 19 13 9.7 14.5 0.00 0.00 0.00 37 978.1
20260502183421 20 7 6.4 11.3 0.00 0.00 0.00 36 978.3
20260502183413 19 10 4.8 14.5 0.00 0.00 0.00 36 978.2
20260502183034 20 341 8.0 11.3 0.00 0.00 0.00 37 978.4
20260502181910 19 298 1.6 6.4 0.00 0.00 0.00 39 978.3
20260502181413 19 197 4.8 8.0 0.00 0.00 0.00 36 978.4
20260502180910 18 327 4.8 8.0 0.00 0.00 0.00 37 978.5
20260502180411 18 347 6.4 8.0 0.00 0.00 0.00 38 978.6
20260502170409 16 118 0.0 3.2 0.00 0.00 0.00 47 979.0
20260502163908 16 111 1.6 4.8 0.00 0.00 0.00 45 979.1
20260502163410 16 110 0.0 4.8 0.00 0.00 0.00 46 979.0
20260502162914 16 110 3.2 4.8 0.00 0.00 0.00 51 979.0
20260502162907 16 110 1.6 4.8 0.00 0.00 0.00 48 979.0
20260502161906 15 111 1.6 9.7 0.00 0.00 0.00 49 979.0
20260502161416 15 125 1.6 6.4 0.00 0.00 0.00 52 979.1
20260502161409 15 110 6.4 9.7 0.00 0.00 0.00 48 979.0
20260502160408 15 127 3.2 6.4 0.00 0.00 0.00 53 979.2
20260502151906 12 286 1.6 4.8 0.00 0.00 0.00 62 979.4
20260502151407 11 286 3.2 6.4 0.00 0.00 0.00 63 979.4
20260502150905 11 286 4.8 6.4 0.00 0.00 0.00 64 979.4
20260502150413 11 286 0.0 6.4 0.00 0.00 0.00 65 979.4
20260502150406 11 285 4.8 6.4 0.00 0.00 0.00 65 979.3
20260502130403 9 310 1.6 4.8 0.00 0.00 0.00 71 979.1
20260502123403 9 324 3.2 4.8 0.00 0.00 0.00 69 978.8
20260502122901 10 324 1.6 4.8 0.00 0.00 0.00 67 979.0
20260502122402 10 324 1.6 6.4 0.00 0.00 0.00 66 979.1
20260502121900 10 324 4.8 6.4 0.00 0.00 0.00 67 979.1
20260502121411 10 331 3.2 6.4 0.00 0.00 0.00 65 979.0
20260502121402 10 329 4.8 6.4 0.00 0.00 0.00 66 979.1
20260502120402 10 331 0.0 3.2 0.00 0.00 0.00 65 979.0
20260502115900 10 331 1.6 3.2 0.00 0.00 0.00 65 979.0
20260502115403 10 331 1.6 3.2 0.00 0.00 0.00 65 979.1
20260502114900 10 331 0.0 0.0 0.00 0.00 0.00 65 979.2
20260502114411 10 331 0.0 0.0 0.00 0.00 0.00 65 979.1
20260502114403 10 331 0.0 0.0 0.00 0.00 0.00 65 979.1
20260502114024 10 331 0.0 0.0 0.00 0.00 0.00 65 979.1
20260502112907 10 331 0.0 0.0 0.00 0.00 0.00 64 979.1
20260502112900 10 331 0.0 0.0 0.00 0.00 0.00 64 979.1
20260502112527 10 331 0.0 1.6 0.00 0.00 0.00 63 979.1
20260502111400 10 331 0.0 1.6 0.00 0.00 0.00 63 979.0
20260502110900 10 331 0.0 0.0 0.00 0.00 0.00 63 979.0
20260502110408 10 331 0.0 0.0 0.00 0.00 0.00 63 979.0
20260502110400 10 331 0.0 0.0 0.00 0.00 0.00 63 979.0
20260502105408 10 331 0.0 0.0 0.00 0.00 0.00 63 979.0
20260502105400 10 331 0.0 0.0 0.00 0.00 0.00 63 979.1
20260502104400 10 331 0.0 0.0 0.00 0.00 0.00 63 979.0
20260502103858 10 331 0.0 1.6 0.00 0.00 0.00 63 979.0
20260502103400 10 331 0.0 1.6 0.00 0.00 0.00 62 979.0
20260502102858 10 331 1.6 1.6 0.00 0.00 0.00 62 978.8
20260502102406 10 331 0.0 4.8 0.00 0.00 0.00 61 978.8
20260502102359 10 331 0.0 0.0 0.00 0.00 0.00 61 979.0
20260502101359 10 331 1.6 4.8 0.00 0.00 0.00 61 978.7
20260502100858 10 0 0.0 0.0 0.00 0.00 0.00 61 978.7
20260502100408 10 0 0.0 0.0 0.00 0.00 0.00 61 978.7
20260502100359 10 0 0.0 0.0 0.00 0.00 0.00 61 978.7
20260502091357 11 0 3.2 4.8 0.00 0.00 0.00 58 978.3
20260502090904 11 0 0.0 6.4 0.00 0.00 0.00 57 978.3
20260502090856 11 0 1.6 4.8 0.00 0.00 0.00 57 978.3
20260502071355 13 319 12.9 24.1 0.00 0.00 0.00 50 977.3
20260502070854 13 334 11.3 22.5 0.00 0.00 0.00 50 977.3
20260502070354 13 350 14.5 25.7 0.00 0.00 0.00 49 977.1
20260502065854 13 348 12.9 25.7 0.00 0.00 0.00 49 976.9
20260502065355 14 8 14.5 25.7 0.00 0.00 0.00 48 976.5
20260502064853 14 0 14.5 25.7 0.00 0.00 0.00 47 976.3
20260502064354 14 28 9.7 35.4 0.00 0.00 0.00 46 976.0
20260502063853 15 52 17.7 35.4 0.00 0.00 0.00 45 975.8
20260502063354 15 93 11.3 27.4 0.00 0.00 0.00 45 975.6
20260502062852 15 52 12.9 29.0 0.00 0.00 0.00 45 975.7
20260502062407 15 80 16.1 32.2 0.00 0.00 0.00 44 975.3
20260502062354 15 42 14.5 32.2 0.00 0.00 0.00 45 975.5
20260502061858 15 55 14.5 32.2 0.00 0.00 0.00 45 975.4
20260502061851 15 62 8.0 32.2 0.00 0.00 0.00 45 975.5
20260502060352 15 38 16.1 27.4 0.00 0.00 0.00 44 975.3
20260502055852 15 14 14.5 27.4 0.00 0.00 0.00 44 975.1
20260502055352 15 3 14.5 24.1 0.00 0.00 0.00 44 975.1
20260502054851 15 51 14.5 29.0 0.00 0.00 0.00 44 975.0
20260502054352 15 355 14.5 29.0 0.00 0.00 0.00 43 975.0
20260502053852 15 1 12.9 27.4 0.00 0.00 0.00 43 974.8
20260502053352 16 14 14.5 27.4 0.00 0.00 0.00 43 974.8
20260502052851 16 1 11.3 22.5 0.00 0.00 0.00 42 974.8
20260502052352 16 0 11.3 22.5 0.00 0.00 0.00 41 974.6
20260502051851 16 347 11.3 19.3 0.00 0.00 0.00 39 974.5
20260502051352 16 4 9.7 19.3 0.00 0.00 0.00 37 974.4
20260502050850 16 0 9.7 17.7 0.00 0.00 0.00 36 974.3
20260502050352 16 355 6.4 20.9 0.00 0.00 0.00 34 974.2
20260502045850 16 345 11.3 20.9 0.00 0.00 0.00 33 974.2
20260502045350 16 21 9.7 14.5 0.00 0.00 0.00 33 974.1
20260502044849 16 357 4.8 11.3 0.00 0.00 0.00 34 974.0
20260502044350 16 326 0.0 3.2 0.00 0.00 0.00 36 973.8
20260502043849 16 326 1.6 6.4 0.00 0.00 0.00 37 973.7
20260502043352 17 326 1.6 6.4 0.00 0.00 0.00 31 973.8
20260502042849 17 326 4.8 6.4 0.00 0.00 0.00 30 973.7
20260502042350 17 327 1.6 4.8 0.00 0.00 0.00 30 973.8
20260502041849 17 327 1.6 3.2 0.00 0.00 0.00 29 973.6
20260502041350 18 327 0.0 3.2 0.00 0.00 0.00 29 973.7
20260502040849 18 327 1.6 4.8 0.00 0.00 0.00 29 973.6
20260502040349 18 327 3.2 6.4 0.00 0.00 0.00 29 973.6
20260502035848 18 327 3.2 6.4 0.00 0.00 0.00 28 973.6
20260502035350 18 329 3.2 8.0 0.00 0.00 0.00 28 973.5
20260502034848 19 329 3.2 11.3 0.00 0.00 0.00 27 973.6
20260502034349 19 0 3.2 11.3 0.00 0.00 0.00 26 973.5
20260502033847 18 0 9.7 11.3 0.00 0.00 0.00 26 973.5
20260502033349 18 350 8.0 16.1 0.00 0.00 0.00 27 973.5
20260502032848 18 317 9.7 17.7 0.00 0.00 0.00 28 973.4
20260502032348 18 307 12.9 25.7 0.00 0.00 0.00 28 973.4
20260502031848 18 338 9.7 25.7 0.00 0.00 0.00 28 973.3
20260502031348 18 316 8.0 25.7 0.00 0.00 0.00 30 973.2
20260502030848 18 268 4.8 11.3 0.00 0.00 0.00 30 972.9
20260502030347 18 290 3.2 17.7 0.00 0.00 0.00 30 972.9
20260502025848 18 274 6.4 17.7 0.00 0.00 0.00 29 972.7
20260502025347 18 314 8.0 20.9 0.00 0.00 0.00 28 972.8
20260502024847 18 307 9.7 20.9 0.00 0.00 0.00 28 972.5
20260502024348 19 259 9.7 16.1 0.00 0.00 0.00 28 972.5
20260502023846 19 286 9.7 17.7 0.00 0.00 0.00 28 972.4
20260502023347 19 269 11.3 17.7 0.00 0.00 0.00 27 972.4
20260502022847 19 216 6.4 14.5 0.00 0.00 0.00 27 972.3
20260502022348 20 259 9.7 14.5 0.00 0.00 0.00 27 972.3
20260502021852 20 252 6.4 11.3 0.00 0.00 0.00 26 972.3
20260502021845 20 252 6.4 11.3 0.00 0.00 0.00 27 972.3
20260502020845 20 274 4.8 11.3 0.00 0.00 0.00 26 972.3
20260502020356 20 258 8.0 17.7 0.00 0.00 0.00 25 972.2
20260502020347 20 269 4.8 16.1 0.00 0.00 0.00 25 972.2
20260502015347 20 262 9.7 20.9 0.00 0.00 0.00 25 972.2
20260502014845 21 268 8.0 25.7 0.00 0.00 0.00 24 972.2
20260502014346 21 285 9.7 25.7 0.00 0.00 0.00 24 972.3
20260502013846 21 296 11.3 20.9 0.00 0.00 0.00 23 972.3
20260502013355 21 264 8.0 17.7 0.00 0.00 0.00 22 972.2
20260502013347 21 265 3.2 17.7 0.00 0.00 0.00 23 972.3
20260502013010 21 244 1.6 17.7 0.00 0.00 0.00 22 972.3
20260502011845 22 257 3.2 20.9 0.00 0.00 0.00 21 972.2
20260502011345 22 278 3.2 22.5 0.00 0.00 0.00 21 972.3
20260502010844 22 250 4.8 22.5 0.00 0.00 0.00 21 972.2
20260502010346 22 264 9.7 29.0 0.00 0.00 0.00 20 972.3
20260502005845 22 254 17.7 29.0 0.00 0.00 0.00 20 972.2
20260502005346 22 217 8.0 20.9 0.00 0.00 0.00 22 972.3
20260502004844 22 288 11.3 20.9 0.00 0.00 0.00 20 972.3
20260502004345 22 262 11.3 20.9 0.00 0.00 0.00 19 972.4
20260502003849 22 266 11.3 27.4 0.00 0.00 0.00 19 972.5
20260502003842 22 276 12.9 27.4 0.00 0.00 0.00 19 972.4
20260502002844 23 309 16.1 27.4 0.00 0.00 0.00 18 972.5
20260502002343 23 286 14.5 22.5 0.00 0.00 0.00 18 972.5
20260502001843 23 283 12.9 24.1 0.00 0.00 0.00 19 972.4
20260502001346 23 210 9.7 25.7 0.00 0.00 0.00 18 972.4
20260502000843 24 285 16.1 25.7 0.00 0.00 0.00 18 972.2
20260502000344 24 238 6.4 24.1 0.00 0.00 0.00 18 972.3
20260501235843 25 258 4.8 22.5 0.00 0.00 0.00 18 972.2
20260501235343 25 276 11.3 30.6 0.00 0.00 0.00 19 972.2
20260501234841 25 268 9.7 30.6 0.00 0.00 0.00 17 972.3
20260501234344 25 306 16.1 24.1 0.00 0.00 0.00 17 972.2
20260501233842 25 278 11.3 19.3 0.00 0.00 0.00 18 972.1
20260501233343 25 286 4.8 16.1 0.00 0.00 0.00 18 972.2
20260501232849 25 285 8.0 16.1 0.00 0.00 0.00 17 972.2
20260501232842 25 247 9.7 16.1 0.00 0.00 0.00 18 972.1
20260501231841 25 234 0.0 19.3 0.00 0.00 0.00 20 972.2
20260501231349 24 324 8.0 17.7 0.00 0.00 0.00 20 972.4
20260501231342 25 251 6.4 19.3 0.00 0.00 0.00 18 972.3
20260501230341 23 190 9.7 17.7 0.00 0.00 0.00 20 972.3
20260501225842 23 210 3.2 20.9 0.00 0.00 0.00 22 972.5
20260501225350 24 190 11.3 25.7 0.00 0.00 0.00 19 972.5
20260501225342 23 152 3.2 25.7 0.00 0.00 0.00 22 972.5
20260501224344 24 244 11.3 19.3 0.00 0.00 0.00 19 972.5
20260501223841 25 141 6.4 14.5 0.00 0.00 0.00 20 972.8
20260501223342 24 224 3.2 14.5 0.00 0.00 0.00 20 972.8
20260501222839 24 179 6.4 14.5 0.00 0.00 0.00 18 972.8
20260501222342 25 175 3.2 24.1 0.00 0.00 0.00 18 972.9
20260501221847 25 281 16.1 24.1 0.00 0.00 0.00 18 973.0
20260501221840 25 183 8.0 24.1 0.00 0.00 0.00 18 972.9
20260501220841 25 265 9.7 24.1 0.00 0.00 0.00 18 973.0
20260501220350 25 288 9.7 20.9 0.00 0.00 0.00 18 973.1
20260501220341 25 200 11.3 20.9 0.00 0.00 0.00 18 973.0
20260501215339 24 321 11.3 16.1 0.00 0.00 0.00 19 973.1
20260501214839 24 144 3.2 8.0 0.00 0.00 0.00 20 973.1